Year,Month,Day,Hour,Minute,Value (Times are PST for windgust in km/hr)
2013,04,10,00,00,1.60
2013,04,10,00,01,3.20
2013,04,10,00,02,4.80
2013,04,10,00,03,4.80
2013,04,10,00,04,4.80
2013,04,10,00,05,4.80
2013,04,10,00,06,4.80
2013,04,10,00,08,3.20
2013,04,10,00,10,1.60
2013,04,10,00,11,3.20
2013,04,10,00,12,4.80
2013,04,10,00,13,4.80
2013,04,10,00,14,3.20
2013,04,10,00,15,3.20
2013,04,10,00,16,1.60
2013,04,10,00,19,1.60
2013,04,10,00,20,1.60
2013,04,10,00,21,1.60
2013,04,10,00,22,4.80
2013,04,10,00,23,3.20
2013,04,10,00,26,1.60
2013,04,10,00,27,1.60
2013,04,10,00,28,3.20
2013,04,10,00,29,4.80
2013,04,10,00,30,1.60
2013,04,10,00,31,1.60
2013,04,10,00,32,3.20
2013,04,10,00,33,1.60
2013,04,10,00,35,1.60
2013,04,10,00,36,1.60
2013,04,10,00,37,3.20
2013,04,10,00,38,3.20
2013,04,10,00,43,1.60
2013,04,10,00,44,1.60
2013,04,10,00,45,1.60
2013,04,10,00,46,1.60
2013,04,10,00,47,3.20
2013,04,10,00,49,1.60
2013,04,10,00,52,1.60
2013,04,10,00,54,1.60
2013,04,10,00,57,1.60
2013,04,10,00,58,1.60
2013,04,10,01,11,3.20
2013,04,10,01,12,4.80
2013,04,10,01,14,1.60
2013,04,10,01,15,1.60
2013,04,10,01,20,1.60
2013,04,10,01,21,1.60
2013,04,10,01,22,3.20
2013,04,10,01,23,3.20
2013,04,10,01,27,3.20
2013,04,10,01,28,1.60
2013,04,10,01,33,1.60
2013,04,10,01,34,3.20
2013,04,10,01,35,1.60
2013,04,10,01,36,1.60
2013,04,10,01,37,4.80
2013,04,10,01,38,3.20
2013,04,10,01,39,1.60
2013,04,10,01,49,3.20
2013,04,10,01,50,3.20
2013,04,10,01,51,1.60
2013,04,10,01,53,1.60
2013,04,10,01,56,1.60
2013,04,10,01,57,4.80
2013,04,10,01,58,3.20
2013,04,10,01,59,1.60
2013,04,10,02,00,1.60
2013,04,10,02,02,1.60
2013,04,10,02,04,1.60
2013,04,10,02,05,1.60
2013,04,10,02,06,3.20
2013,04,10,02,07,4.80
2013,04,10,02,08,6.40
2013,04,10,02,09,4.80
2013,04,10,02,10,1.60
2013,04,10,02,11,3.20
2013,04,10,02,12,1.60
2013,04,10,02,15,1.60
2013,04,10,02,16,3.20
2013,04,10,02,18,1.60
2013,04,10,02,37,1.60
2013,04,10,02,40,4.80
2013,04,10,02,41,3.20
2013,04,10,02,42,1.60
2013,04,10,02,50,1.60
2013,04,10,02,53,1.60
2013,04,10,03,03,1.60
2013,04,10,03,04,1.60
2013,04,10,03,10,1.60
2013,04,10,03,11,1.60
2013,04,10,03,40,3.20
2013,04,10,03,41,1.60
2013,04,10,03,42,3.20
2013,04,10,03,43,3.20
2013,04,10,03,44,1.60
2013,04,10,03,46,1.60
2013,04,10,03,47,1.60
2013,04,10,03,55,1.60
2013,04,10,03,56,1.60
2013,04,10,03,57,4.80
2013,04,10,03,58,3.20
2013,04,10,03,59,4.80
2013,04,10,04,00,9.60
2013,04,10,04,01,8.10
2013,04,10,04,02,3.20
2013,04,10,04,03,1.60
2013,04,10,04,04,3.20
2013,04,10,04,05,3.20
2013,04,10,04,07,3.20
2013,04,10,04,08,3.20
2013,04,10,04,10,1.60
2013,04,10,04,12,3.20
2013,04,10,04,13,6.40
2013,04,10,04,14,3.20
2013,04,10,04,15,1.60
2013,04,10,04,17,3.20
2013,04,10,04,18,3.20
2013,04,10,04,19,1.60
2013,04,10,04,20,1.60
2013,04,10,04,21,1.60
2013,04,10,04,23,1.60
2013,04,10,04,24,1.60
2013,04,10,04,30,1.60
2013,04,10,04,31,1.60
2013,04,10,04,32,1.60
2013,04,10,04,33,4.80
2013,04,10,04,34,8.10
2013,04,10,04,35,4.80
2013,04,10,04,36,4.80
2013,04,10,04,37,4.80
2013,04,10,04,38,6.40
2013,04,10,04,39,4.80
2013,04,10,04,40,3.20
2013,04,10,04,43,1.60
2013,04,10,04,44,4.80
2013,04,10,04,45,4.80
2013,04,10,04,46,8.10
2013,04,10,04,47,6.40
2013,04,10,04,48,4.80
2013,04,10,04,49,6.40
2013,04,10,04,50,3.20
2013,04,10,04,51,3.20
2013,04,10,04,52,4.80
2013,04,10,04,53,4.80
2013,04,10,04,54,4.80
2013,04,10,04,55,3.20
2013,04,10,04,56,3.20
2013,04,10,04,57,6.40
2013,04,10,04,58,9.60
2013,04,10,04,59,4.80
2013,04,10,05,00,1.60
2013,04,10,05,03,4.80
2013,04,10,05,04,4.80
2013,04,10,05,05,6.40
2013,04,10,05,06,8.10
2013,04,10,05,07,4.80
2013,04,10,05,08,3.20
2013,04,10,05,12,3.20
2013,04,10,05,24,1.60
2013,04,10,05,25,1.60
2013,04,10,05,26,1.60
2013,04,10,05,31,1.60
2013,04,10,05,32,1.60
2013,04,10,05,33,1.60
2013,04,10,05,34,3.20
2013,04,10,05,35,1.60
2013,04,10,05,36,4.80
2013,04,10,05,37,6.40
2013,04,10,05,38,6.40
2013,04,10,05,39,3.20
2013,04,10,05,40,3.20
2013,04,10,05,41,3.20
2013,04,10,05,42,3.20
2013,04,10,05,43,3.20
2013,04,10,05,44,3.20
2013,04,10,05,45,4.80
2013,04,10,05,46,3.20
2013,04,10,05,47,4.80
2013,04,10,05,48,8.10
2013,04,10,05,49,4.80
2013,04,10,05,50,1.60
2013,04,10,05,51,6.40
2013,04,10,05,52,6.40
2013,04,10,05,53,3.20
2013,04,10,05,55,6.40
2013,04,10,05,56,3.20
2013,04,10,05,57,1.60
2013,04,10,05,58,4.80
2013,04,10,05,59,1.60
2013,04,10,06,00,3.20
2013,04,10,06,01,3.20
2013,04,10,06,02,1.60
2013,04,10,06,03,1.60
2013,04,10,06,04,1.60
2013,04,10,06,05,1.60
2013,04,10,06,06,1.60
2013,04,10,06,12,1.60
2013,04,10,06,13,3.20
2013,04,10,06,14,3.20
2013,04,10,06,15,3.20
2013,04,10,06,16,1.60
2013,04,10,06,17,3.20
2013,04,10,06,18,3.20
2013,04,10,06,19,1.60
2013,04,10,06,20,1.60
2013,04,10,06,21,3.20
2013,04,10,06,23,1.60
2013,04,10,06,33,1.60
2013,04,10,06,34,6.40
2013,04,10,06,35,1.60
2013,04,10,06,36,9.60
2013,04,10,06,37,8.10
2013,04,10,06,38,8.10
2013,04,10,06,39,9.60
2013,04,10,06,40,12.90
2013,04,10,06,41,11.30
2013,04,10,06,42,6.40
2013,04,10,06,43,9.60
2013,04,10,06,44,11.30
2013,04,10,06,45,9.60
2013,04,10,06,46,8.10
2013,04,10,06,47,8.10
2013,04,10,06,48,6.40
2013,04,10,06,49,6.40
2013,04,10,06,50,4.80
2013,04,10,06,51,3.20
2013,04,10,06,52,3.20
2013,04,10,06,53,4.80
2013,04,10,06,54,6.40
2013,04,10,06,55,4.80
2013,04,10,06,57,1.60
2013,04,10,06,58,1.60
2013,04,10,06,59,1.60
2013,04,10,07,00,3.20
2013,04,10,07,01,3.20
2013,04,10,07,02,3.20
2013,04,10,07,03,6.40
2013,04,10,07,04,6.40
2013,04,10,07,05,3.20
2013,04,10,07,06,1.60
2013,04,10,07,07,8.10
2013,04,10,07,08,4.80
2013,04,10,07,09,4.80
2013,04,10,07,10,4.80
2013,04,10,07,11,6.40
2013,04,10,07,12,6.40
2013,04,10,07,13,6.40
2013,04,10,07,14,4.80
2013,04,10,07,15,6.40
2013,04,10,07,16,6.40
2013,04,10,07,17,1.60
2013,04,10,07,18,1.60
2013,04,10,07,19,1.60
2013,04,10,07,20,3.20
2013,04,10,07,23,3.20
2013,04,10,07,24,3.20
2013,04,10,07,25,1.60
2013,04,10,07,26,3.20
2013,04,10,07,27,3.20
2013,04,10,07,28,3.20
2013,04,10,07,29,1.60
2013,04,10,07,30,3.20
2013,04,10,07,31,3.20
2013,04,10,07,43,1.60
2013,04,10,07,44,1.60
2013,04,10,07,51,1.60
2013,04,10,07,54,3.20
2013,04,10,07,55,3.20
2013,04,10,07,56,3.20
2013,04,10,07,57,4.80
2013,04,10,07,58,6.40
2013,04,10,07,59,3.20
2013,04,10,08,00,3.20
2013,04,10,08,01,3.20
2013,04,10,08,02,3.20
2013,04,10,08,03,4.80
2013,04,10,08,04,8.10
2013,04,10,08,05,6.40
2013,04,10,08,06,6.40
2013,04,10,08,07,8.10
2013,04,10,08,08,8.10
2013,04,10,08,09,9.60
2013,04,10,08,10,6.40
2013,04,10,08,11,6.40
2013,04,10,08,12,6.40
2013,04,10,08,13,8.10
2013,04,10,08,14,6.40
2013,04,10,08,15,6.40
2013,04,10,08,16,4.80
2013,04,10,08,17,8.10
2013,04,10,08,18,8.10
2013,04,10,08,19,8.10
2013,04,10,08,20,9.60
2013,04,10,08,21,9.60
2013,04,10,08,22,9.60
2013,04,10,08,23,8.10
2013,04,10,08,24,8.10
2013,04,10,08,25,8.10
2013,04,10,08,26,8.10
2013,04,10,08,27,11.30
2013,04,10,08,28,8.10
2013,04,10,08,29,11.30
2013,04,10,08,30,11.30
2013,04,10,08,31,12.90
2013,04,10,08,32,14.50
2013,04,10,08,33,11.30
2013,04,10,08,34,12.90
2013,04,10,08,35,14.50
2013,04,10,08,36,12.90
2013,04,10,08,37,11.30
2013,04,10,08,38,12.90
2013,04,10,08,39,11.30
2013,04,10,08,40,9.60
2013,04,10,08,41,11.30
2013,04,10,08,42,14.50
2013,04,10,08,43,16.10
2013,04,10,08,44,16.10
2013,04,10,08,45,16.10
2013,04,10,08,46,17.70
2013,04,10,08,47,12.90
2013,04,10,08,48,16.10
2013,04,10,08,49,16.10
2013,04,10,08,50,16.10
2013,04,10,08,51,11.30
2013,04,10,08,52,16.10
2013,04,10,08,53,17.70
2013,04,10,08,54,14.50
2013,04,10,08,55,16.10
2013,04,10,08,56,17.70
2013,04,10,08,57,19.30
2013,04,10,08,58,17.70
2013,04,10,08,59,22.50
2013,04,10,09,00,17.70
2013,04,10,09,01,14.50
2013,04,10,09,02,16.10
2013,04,10,09,03,17.70
2013,04,10,09,04,14.50
2013,04,10,09,05,16.10
2013,04,10,09,06,12.90
2013,04,10,09,07,17.70
2013,04,10,09,08,16.10
2013,04,10,09,09,19.30
2013,04,10,09,10,19.30
2013,04,10,09,11,22.50
2013,04,10,09,12,14.50
2013,04,10,09,13,19.30
2013,04,10,09,14,27.40
2013,04,10,09,15,19.30
2013,04,10,09,16,25.70
2013,04,10,09,17,25.70
2013,04,10,09,18,25.70
2013,04,10,09,19,20.90
2013,04,10,09,20,27.40
2013,04,10,09,21,22.50
2013,04,10,09,22,19.30
2013,04,10,09,23,29.00
2013,04,10,09,24,30.60
2013,04,10,09,25,29.00
2013,04,10,09,26,22.50
2013,04,10,09,27,33.80
2013,04,10,09,28,35.40
2013,04,10,09,29,33.80
2013,04,10,09,30,37.00
2013,04,10,09,31,29.00
2013,04,10,09,32,30.60
2013,04,10,09,33,29.00
2013,04,10,09,34,33.80
2013,04,10,09,35,32.20
2013,04,10,09,36,51.50
2013,04,10,09,37,51.50
2013,04,10,09,38,40.20
2013,04,10,09,39,51.50
2013,04,10,09,40,56.30
2013,04,10,09,41,37.00
2013,04,10,09,42,56.30
2013,04,10,09,43,53.10
2013,04,10,09,44,53.10
2013,04,10,09,45,35.40
2013,04,10,09,46,40.20
2013,04,10,09,47,61.20
2013,04,10,09,48,46.70
2013,04,10,09,49,64.40
2013,04,10,09,50,51.50
2013,04,10,09,51,35.40
2013,04,10,09,52,48.30
2013,04,10,09,53,49.90
2013,04,10,09,54,38.60
2013,04,10,09,55,43.50
2013,04,10,09,56,46.70
2013,04,10,09,57,46.70
2013,04,10,09,58,54.70
2013,04,10,09,59,48.30
2013,04,10,10,00,51.50
2013,04,10,10,01,41.80
2013,04,10,10,02,38.60
2013,04,10,10,03,49.90
2013,04,10,10,04,38.60
2013,04,10,10,05,40.20
2013,04,10,10,06,40.20
2013,04,10,10,07,45.10
2013,04,10,10,08,49.90
2013,04,10,10,09,53.10
2013,04,10,10,10,51.50
2013,04,10,10,11,41.80
2013,04,10,10,12,49.90
2013,04,10,10,13,57.90
2013,04,10,10,14,70.80
2013,04,10,10,15,45.10
2013,04,10,10,16,56.30
2013,04,10,10,17,51.50
2013,04,10,10,18,59.50
2013,04,10,10,19,49.90
2013,04,10,10,20,53.10
2013,04,10,10,21,48.30
2013,04,10,10,22,45.10
2013,04,10,10,23,56.30
2013,04,10,10,24,59.50
2013,04,10,10,25,45.10
2013,04,10,10,26,51.50
2013,04,10,10,27,62.70
2013,04,10,10,28,61.20
2013,04,10,10,29,51.50
2013,04,10,10,30,53.10
2013,04,10,10,31,54.70
2013,04,10,10,32,46.70
2013,04,10,10,33,54.70
2013,04,10,10,34,62.70
2013,04,10,10,35,38.60
2013,04,10,10,36,38.60
2013,04,10,10,37,59.50
2013,04,10,10,38,57.90
2013,04,10,10,39,38.60
2013,04,10,10,40,61.20
2013,04,10,10,41,38.60
2013,04,10,10,42,49.90
2013,04,10,10,43,46.70
2013,04,10,10,44,64.40
2013,04,10,10,45,72.40
2013,04,10,10,46,40.20
2013,04,10,10,47,54.70
2013,04,10,10,48,51.50
2013,04,10,10,49,46.70
2013,04,10,10,50,53.10
2013,04,10,10,51,38.60
2013,04,10,10,52,49.90
2013,04,10,10,53,40.20
2013,04,10,10,54,46.70
2013,04,10,10,55,43.50
2013,04,10,10,56,43.50
2013,04,10,10,57,56.30
2013,04,10,10,58,49.90
2013,04,10,10,59,49.90
2013,04,10,11,00,38.60
2013,04,10,11,01,33.80
2013,04,10,11,02,49.90
2013,04,10,11,03,54.70
2013,04,10,11,04,37.00
2013,04,10,11,05,46.70
2013,04,10,11,06,48.30
2013,04,10,11,07,62.70
2013,04,10,11,08,46.70
2013,04,10,11,09,54.70
2013,04,10,11,10,46.70
2013,04,10,11,11,43.50
2013,04,10,11,12,51.50
2013,04,10,11,13,45.10
2013,04,10,11,14,62.70
2013,04,10,11,15,45.10
2013,04,10,11,16,53.10
2013,04,10,11,17,45.10
2013,04,10,11,18,49.90
2013,04,10,11,19,51.50
2013,04,10,11,20,57.90
2013,04,10,11,21,57.90
2013,04,10,11,22,54.70
2013,04,10,11,23,40.20
2013,04,10,11,24,56.30
2013,04,10,11,25,54.70
2013,04,10,11,26,64.40
2013,04,10,11,27,64.40
2013,04,10,11,28,46.70
2013,04,10,11,29,51.50
2013,04,10,11,30,54.70
2013,04,10,11,31,45.10
2013,04,10,11,32,49.90
2013,04,10,11,33,48.30
2013,04,10,11,34,51.50
2013,04,10,11,35,38.60
2013,04,10,11,36,40.20
2013,04,10,11,37,54.70
2013,04,10,11,38,74.00
2013,04,10,11,39,66.00
2013,04,10,11,40,51.50
2013,04,10,11,41,45.10
2013,04,10,11,42,46.70
2013,04,10,11,43,45.10
2013,04,10,11,44,53.10
2013,04,10,11,45,54.70
2013,04,10,11,46,48.30
2013,04,10,11,47,49.90
2013,04,10,11,48,53.10
2013,04,10,11,49,49.90
2013,04,10,11,50,74.00
2013,04,10,11,51,41.80
2013,04,10,11,52,54.70
2013,04,10,11,53,45.10
2013,04,10,11,54,56.30
2013,04,10,11,55,48.30
2013,04,10,11,56,46.70
2013,04,10,11,57,53.10
2013,04,10,11,58,41.80
2013,04,10,11,59,51.50
2013,04,10,12,00,37.00
2013,04,10,12,01,40.20
2013,04,10,12,02,43.50
2013,04,10,12,03,46.70
2013,04,10,12,04,49.90
2013,04,10,12,05,57.90
2013,04,10,12,06,49.90
2013,04,10,12,07,38.60
2013,04,10,12,08,27.40
2013,04,10,12,09,43.50
2013,04,10,12,10,35.40
2013,04,10,12,11,33.80
2013,04,10,12,12,33.80
2013,04,10,12,13,38.60
2013,04,10,12,14,29.00
2013,04,10,12,15,41.80
2013,04,10,12,16,43.50
2013,04,10,12,17,46.70
2013,04,10,12,18,33.80
2013,04,10,12,19,38.60
2013,04,10,12,20,27.40
2013,04,10,12,21,41.80
2013,04,10,12,22,22.50
2013,04,10,12,23,45.10
2013,04,10,12,24,30.60
2013,04,10,12,25,38.60
2013,04,10,12,26,30.60
2013,04,10,12,27,32.20
2013,04,10,12,28,37.00
2013,04,10,12,29,27.40
2013,04,10,12,30,40.20
2013,04,10,12,31,25.70
2013,04,10,12,32,38.60
2013,04,10,12,33,30.60
2013,04,10,12,34,29.00
2013,04,10,12,35,30.60
2013,04,10,12,36,33.80
2013,04,10,12,37,32.20
2013,04,10,12,38,20.90
2013,04,10,12,39,27.40
2013,04,10,12,40,27.40
2013,04,10,12,41,40.20
2013,04,10,12,42,48.30
2013,04,10,12,43,33.80
2013,04,10,12,44,32.20
2013,04,10,12,45,41.80
2013,04,10,12,46,33.80
2013,04,10,12,47,25.70
2013,04,10,12,48,45.10
2013,04,10,12,49,41.80
2013,04,10,12,50,30.60
2013,04,10,12,51,27.40
2013,04,10,12,52,24.20
2013,04,10,12,53,51.50
2013,04,10,12,54,41.80
2013,04,10,12,55,40.20
2013,04,10,12,56,43.50
2013,04,10,12,57,38.60
2013,04,10,12,58,51.50
2013,04,10,12,59,41.80
2013,04,10,13,00,37.00
2013,04,10,13,01,46.70
2013,04,10,13,02,45.10
2013,04,10,13,03,37.00
2013,04,10,13,04,45.10
2013,04,10,13,05,40.20
2013,04,10,13,06,41.80
2013,04,10,13,07,41.80
2013,04,10,13,08,43.50
2013,04,10,13,09,37.00
2013,04,10,13,10,35.40
2013,04,10,13,11,43.50
2013,04,10,13,12,41.80
2013,04,10,13,13,54.70
2013,04,10,13,14,38.60
2013,04,10,13,15,56.30
2013,04,10,13,16,49.90
2013,04,10,13,17,41.80
2013,04,10,13,18,41.80
2013,04,10,13,19,40.20
2013,04,10,13,20,48.30
2013,04,10,13,21,41.80
2013,04,10,13,22,45.10
2013,04,10,13,23,41.80
2013,04,10,13,24,49.90
2013,04,10,13,25,45.10
2013,04,10,13,26,38.60
2013,04,10,13,27,38.60
2013,04,10,13,28,51.50
2013,04,10,13,29,46.70
2013,04,10,13,30,41.80
2013,04,10,13,31,46.70
2013,04,10,13,32,48.30
2013,04,10,13,33,48.30
2013,04,10,13,34,51.50
2013,04,10,13,35,43.50
2013,04,10,13,36,38.60
2013,04,10,13,37,45.10
2013,04,10,13,38,54.70
2013,04,10,13,39,54.70
2013,04,10,13,40,48.30
2013,04,10,13,41,43.50
2013,04,10,13,42,43.50
2013,04,10,13,43,38.60
2013,04,10,13,44,33.80
2013,04,10,13,45,33.80
2013,04,10,13,46,38.60
2013,04,10,13,47,38.60
2013,04,10,13,48,43.50
2013,04,10,13,49,35.40
2013,04,10,13,50,43.50
2013,04,10,13,51,38.60
2013,04,10,13,52,38.60
2013,04,10,13,53,35.40
2013,04,10,13,54,43.50
2013,04,10,13,55,41.80
2013,04,10,13,56,38.60
2013,04,10,13,57,37.00
2013,04,10,13,58,37.00
2013,04,10,13,59,46.70
2013,04,10,14,00,48.30
2013,04,10,14,01,46.70
2013,04,10,14,02,48.30
2013,04,10,14,03,45.10
2013,04,10,14,04,38.60
2013,04,10,14,05,38.60
2013,04,10,14,06,40.20
2013,04,10,14,07,37.00
2013,04,10,14,08,41.80
2013,04,10,14,09,38.60
2013,04,10,14,10,49.90
2013,04,10,14,11,54.70
2013,04,10,14,12,54.70
2013,04,10,14,13,43.50
2013,04,10,14,14,43.50
2013,04,10,14,15,40.20
2013,04,10,14,16,46.70
2013,04,10,14,17,51.50
2013,04,10,14,18,45.10
2013,04,10,14,19,40.20
2013,04,10,14,20,45.10
2013,04,10,14,21,45.10
2013,04,10,14,22,51.50
2013,04,10,14,23,45.10
2013,04,10,14,24,38.60
2013,04,10,14,25,38.60
2013,04,10,14,26,43.50
2013,04,10,14,27,38.60
2013,04,10,14,28,45.10
2013,04,10,14,29,38.60
2013,04,10,14,30,29.00
2013,04,10,14,31,35.40
2013,04,10,14,32,25.70
2013,04,10,14,33,30.60
2013,04,10,14,34,38.60
2013,04,10,14,35,49.90
2013,04,10,14,36,35.40
2013,04,10,14,37,33.80
2013,04,10,14,38,35.40
2013,04,10,14,39,40.20
2013,04,10,14,40,37.00
2013,04,10,14,41,29.00
2013,04,10,14,42,40.20
2013,04,10,14,43,40.20
2013,04,10,14,44,24.20
2013,04,10,14,45,41.80
2013,04,10,14,46,35.40
2013,04,10,14,47,41.80
2013,04,10,14,48,33.80
2013,04,10,14,49,35.40
2013,04,10,14,50,35.40
2013,04,10,14,51,43.50
2013,04,10,14,52,35.40
2013,04,10,14,53,48.30
2013,04,10,14,54,46.70
2013,04,10,14,55,41.80
2013,04,10,14,56,43.50
2013,04,10,14,57,30.60
2013,04,10,14,58,35.40
2013,04,10,14,59,41.80
2013,04,10,15,00,43.50
2013,04,10,15,01,40.20
2013,04,10,15,02,29.00
2013,04,10,15,03,43.50
2013,04,10,15,04,43.50
2013,04,10,15,05,43.50
2013,04,10,15,06,45.10
2013,04,10,15,07,38.60
2013,04,10,15,08,40.20
2013,04,10,15,09,35.40
2013,04,10,15,10,40.20
2013,04,10,15,11,27.40
2013,04,10,15,12,27.40
2013,04,10,15,13,30.60
2013,04,10,15,14,43.50
2013,04,10,15,15,40.20
2013,04,10,15,16,38.60
2013,04,10,15,17,32.20
2013,04,10,15,18,46.70
2013,04,10,15,19,48.30
2013,04,10,15,20,41.80
2013,04,10,15,21,51.50
2013,04,10,15,22,48.30
2013,04,10,15,23,46.70
2013,04,10,15,24,51.50
2013,04,10,15,25,49.90
2013,04,10,15,26,49.90
2013,04,10,15,27,38.60
2013,04,10,15,28,48.30
2013,04,10,15,29,40.20
2013,04,10,15,30,32.20
2013,04,10,15,31,40.20
2013,04,10,15,32,41.80
2013,04,10,15,33,40.20
2013,04,10,15,34,43.50
2013,04,10,15,35,53.10
2013,04,10,15,36,41.80
2013,04,10,15,37,41.80
2013,04,10,15,38,32.20
2013,04,10,15,39,35.40
2013,04,10,15,40,33.80
2013,04,10,15,41,38.60
2013,04,10,15,42,43.50
2013,04,10,15,43,38.60
2013,04,10,15,44,29.00
2013,04,10,15,45,35.40
2013,04,10,15,46,38.60
2013,04,10,15,47,51.50
2013,04,10,15,48,45.10
2013,04,10,15,49,48.30
2013,04,10,15,50,35.40
2013,04,10,15,51,33.80
2013,04,10,15,52,43.50
2013,04,10,15,53,40.20
2013,04,10,15,54,38.60
2013,04,10,15,55,35.40
2013,04,10,15,56,38.60
2013,04,10,15,57,56.30
2013,04,10,15,58,40.20
2013,04,10,15,59,38.60
2013,04,10,16,00,37.00
2013,04,10,16,01,43.50
2013,04,10,16,02,30.60
2013,04,10,16,03,33.80
2013,04,10,16,04,41.80
2013,04,10,16,05,35.40
2013,04,10,16,06,37.00
2013,04,10,16,07,45.10
2013,04,10,16,08,38.60
2013,04,10,16,09,45.10
2013,04,10,16,10,38.60
2013,04,10,16,11,41.80
2013,04,10,16,12,51.50
2013,04,10,16,13,51.50
2013,04,10,16,14,38.60
2013,04,10,16,15,32.20
2013,04,10,16,16,30.60
2013,04,10,16,17,38.60
2013,04,10,16,18,32.20
2013,04,10,16,19,45.10
2013,04,10,16,20,43.50
2013,04,10,16,21,32.20
2013,04,10,16,22,46.70
2013,04,10,16,23,46.70
2013,04,10,16,24,45.10
2013,04,10,16,25,38.60
2013,04,10,16,26,46.70
2013,04,10,16,27,48.30
2013,04,10,16,28,49.90
2013,04,10,16,29,30.60
2013,04,10,16,30,40.20
2013,04,10,16,31,40.20
2013,04,10,16,32,46.70
2013,04,10,16,33,43.50
2013,04,10,16,34,38.60
2013,04,10,16,35,40.20
2013,04,10,16,36,49.90
2013,04,10,16,37,51.50
2013,04,10,16,38,51.50
2013,04,10,16,39,40.20
2013,04,10,16,40,43.50
2013,04,10,16,41,49.90
2013,04,10,16,42,45.10
2013,04,10,16,43,43.50
2013,04,10,16,44,51.50
2013,04,10,16,45,41.80
2013,04,10,16,46,38.60
2013,04,10,16,47,37.00
2013,04,10,16,48,51.50
2013,04,10,16,49,48.30
2013,04,10,16,50,51.50
2013,04,10,16,51,43.50
2013,04,10,16,52,35.40
2013,04,10,16,53,40.20
2013,04,10,16,54,51.50
2013,04,10,16,55,38.60
2013,04,10,16,56,43.50
2013,04,10,16,57,45.10
2013,04,10,16,58,40.20
2013,04,10,16,59,51.50
2013,04,10,17,00,49.90
2013,04,10,17,01,59.50
2013,04,10,17,02,48.30
2013,04,10,17,03,51.50
2013,04,10,17,04,38.60
2013,04,10,17,05,48.30
2013,04,10,17,06,37.00
2013,04,10,17,07,53.10
2013,04,10,17,08,46.70
2013,04,10,17,09,48.30
2013,04,10,17,10,49.90
2013,04,10,17,11,48.30
2013,04,10,17,12,40.20
2013,04,10,17,13,35.40
2013,04,10,17,14,54.70
2013,04,10,17,15,45.10
2013,04,10,17,16,45.10
2013,04,10,17,17,40.20
2013,04,10,17,18,38.60
2013,04,10,17,19,49.90
2013,04,10,17,20,46.70
2013,04,10,17,21,43.50
2013,04,10,17,22,41.80
2013,04,10,17,23,38.60
2013,04,10,17,24,45.10
2013,04,10,17,25,45.10
2013,04,10,17,26,43.50
2013,04,10,17,27,37.00
2013,04,10,17,28,38.60
2013,04,10,17,29,38.60
2013,04,10,17,30,45.10
2013,04,10,17,31,45.10
2013,04,10,17,32,35.40
2013,04,10,17,33,38.60
2013,04,10,17,34,45.10
2013,04,10,17,35,40.20
2013,04,10,17,36,45.10
2013,04,10,17,37,37.00
2013,04,10,17,38,35.40
2013,04,10,17,39,32.20
2013,04,10,17,40,32.20
2013,04,10,17,41,49.90
2013,04,10,17,42,40.20
2013,04,10,17,43,38.60
2013,04,10,17,44,40.20
2013,04,10,17,45,40.20
2013,04,10,17,46,38.60
2013,04,10,17,47,32.20
2013,04,10,17,48,48.30
2013,04,10,17,49,46.70
2013,04,10,17,50,35.40
2013,04,10,17,51,33.80
2013,04,10,17,52,29.00
2013,04,10,17,53,41.80
2013,04,10,17,54,46.70
2013,04,10,17,55,37.00
2013,04,10,17,56,38.60
2013,04,10,17,57,57.90
2013,04,10,17,58,46.70
2013,04,10,17,59,41.80
2013,04,10,18,00,38.60
2013,04,10,18,01,35.40
2013,04,10,18,02,38.60
2013,04,10,18,03,27.40
2013,04,10,18,04,38.60
2013,04,10,18,05,51.50
2013,04,10,18,06,43.50
2013,04,10,18,07,33.80
2013,04,10,18,08,43.50
2013,04,10,18,09,32.20
2013,04,10,18,10,45.10
2013,04,10,18,11,38.60
2013,04,10,18,12,38.60
2013,04,10,18,13,33.80
2013,04,10,18,14,32.20
2013,04,10,18,15,41.80
2013,04,10,18,16,49.90
2013,04,10,18,17,38.60
2013,04,10,18,18,37.00
2013,04,10,18,19,49.90
2013,04,10,18,20,38.60
2013,04,10,18,21,45.10
2013,04,10,18,22,38.60
2013,04,10,18,23,33.80
2013,04,10,18,24,38.60
2013,04,10,18,25,32.20
2013,04,10,18,26,33.80
2013,04,10,18,27,45.10
2013,04,10,18,28,46.70
2013,04,10,18,29,30.60
2013,04,10,18,30,41.80
2013,04,10,18,31,38.60
2013,04,10,18,32,43.50
2013,04,10,18,33,43.50
2013,04,10,18,34,49.90
2013,04,10,18,35,38.60
2013,04,10,18,36,33.80
2013,04,10,18,37,35.40
2013,04,10,18,38,35.40
2013,04,10,18,39,25.70
2013,04,10,18,40,45.10
2013,04,10,18,41,38.60
2013,04,10,18,42,30.60
2013,04,10,18,43,27.40
2013,04,10,18,44,32.20
2013,04,10,18,45,29.00
2013,04,10,18,46,29.00
2013,04,10,18,47,27.40
2013,04,10,18,48,27.40
2013,04,10,18,49,29.00
2013,04,10,18,50,29.00
2013,04,10,18,51,32.20
2013,04,10,18,52,29.00
2013,04,10,18,53,35.40
2013,04,10,18,54,22.50
2013,04,10,18,55,25.70
2013,04,10,18,56,35.40
2013,04,10,18,57,45.10
2013,04,10,18,58,33.80
2013,04,10,18,59,37.00
2013,04,10,19,00,24.20
2013,04,10,19,01,35.40
2013,04,10,19,02,32.20
2013,04,10,19,03,37.00
2013,04,10,19,04,29.00
2013,04,10,19,05,40.20
2013,04,10,19,06,32.20
2013,04,10,19,07,29.00
2013,04,10,19,08,30.60
2013,04,10,19,09,29.00
2013,04,10,19,10,37.00
2013,04,10,19,11,27.40
2013,04,10,19,12,35.40
2013,04,10,19,13,35.40
2013,04,10,19,14,43.50
2013,04,10,19,15,43.50
2013,04,10,19,16,35.40
2013,04,10,19,17,33.80
2013,04,10,19,18,25.70
2013,04,10,19,19,27.40
2013,04,10,19,20,29.00
2013,04,10,19,21,37.00
2013,04,10,19,22,22.50
2013,04,10,19,23,33.80
2013,04,10,19,24,32.20
2013,04,10,19,25,37.00
2013,04,10,19,26,41.80
2013,04,10,19,27,37.00
2013,04,10,19,28,29.00
2013,04,10,19,29,22.50
2013,04,10,19,30,41.80
2013,04,10,19,31,29.00
2013,04,10,19,32,33.80
2013,04,10,19,33,38.60
2013,04,10,19,34,40.20
2013,04,10,19,35,27.40
2013,04,10,19,36,25.70
2013,04,10,19,37,32.20
2013,04,10,19,38,25.70
2013,04,10,19,39,35.40
2013,04,10,19,40,33.80
2013,04,10,19,41,27.40
2013,04,10,19,42,24.20
2013,04,10,19,43,32.20
2013,04,10,19,44,33.80
2013,04,10,19,45,33.80
2013,04,10,19,46,37.00
2013,04,10,19,47,38.60
2013,04,10,19,48,27.40
2013,04,10,19,49,30.60
2013,04,10,19,50,32.20
2013,04,10,19,51,33.80
2013,04,10,19,52,30.60
2013,04,10,19,53,32.20
2013,04,10,19,54,38.60
2013,04,10,19,55,29.00
2013,04,10,19,56,40.20
2013,04,10,19,57,35.40
2013,04,10,19,58,32.20
2013,04,10,19,59,30.60
2013,04,10,20,00,24.20
2013,04,10,20,01,38.60
2013,04,10,20,02,32.20
2013,04,10,20,03,41.80
2013,04,10,20,04,35.40
2013,04,10,20,05,27.40
2013,04,10,20,06,35.40
2013,04,10,20,07,32.20
2013,04,10,20,08,30.60
2013,04,10,20,09,30.60
2013,04,10,20,10,35.40
2013,04,10,20,11,33.80
2013,04,10,20,12,37.00
2013,04,10,20,13,38.60
2013,04,10,20,14,33.80
2013,04,10,20,15,25.70
2013,04,10,20,16,33.80
2013,04,10,20,17,33.80
2013,04,10,20,18,33.80
2013,04,10,20,19,32.20
2013,04,10,20,20,33.80
2013,04,10,20,21,29.00
2013,04,10,20,22,38.60
2013,04,10,20,23,19.30
2013,04,10,20,24,19.30
2013,04,10,20,25,19.30
2013,04,10,20,26,37.00
2013,04,10,20,27,38.60
2013,04,10,20,28,25.70
2013,04,10,20,29,25.70
2013,04,10,20,30,38.60
2013,04,10,20,31,38.60
2013,04,10,20,32,37.00
2013,04,10,20,33,30.60
2013,04,10,20,34,27.40
2013,04,10,20,35,32.20
2013,04,10,20,36,35.40
2013,04,10,20,37,35.40
2013,04,10,20,38,32.20
2013,04,10,20,39,30.60
2013,04,10,20,40,32.20
2013,04,10,20,41,24.20
2013,04,10,20,42,33.80
2013,04,10,20,43,35.40
2013,04,10,20,44,24.20
2013,04,10,20,45,29.00
2013,04,10,20,46,35.40
2013,04,10,20,47,33.80
2013,04,10,20,48,19.30
2013,04,10,20,49,32.20
2013,04,10,20,50,25.70
2013,04,10,20,51,33.80
2013,04,10,20,52,25.70
2013,04,10,20,53,27.40
2013,04,10,20,54,25.70
2013,04,10,20,55,27.40
2013,04,10,20,56,30.60
2013,04,10,20,57,37.00
2013,04,10,20,58,38.60
2013,04,10,20,59,37.00